Location: Sungai Buloh
(3.1000°N, 113.0000°E)
Time: 17:05:17
(UTC+00:00)

SL-16 R/B - Pass Details

Date: 12 January 2026
Orbit: 984 x 1007 km, 99.8° (Epoch: 10 February)

Event Time Altitude Azimuth Distance (km) Brightness Sun altitude
Rises 20:09:15 0° 153° (SSE) 3,729 6.2 -35.2°
Reaches altitude 10° 20:11:51 10° 147° (SSE) 2,776 5.5 -34.6°
Maximum altitude 20:17:45 45° 76° (ENE) 1,342 3.4 -33.3°
Enters shadow 20:19:27 37° 37° (NE) 1,513 3.5 -32.9°
